Flag for U.S.A. Weather past 2 weeks in Columbia, South Carolina, U.S.A.

Now
80 °F

Sunny.


Feels Like: 79 °F
Forecast: 44 / 78 °F
Wind: 13 mph from West

Location: Columbia Owens Downtown Airport

Current Time: Mar 31, 2015 at 5:34:26 PM

Latest Report: Mar 31, 2015 at 4:53 PM


Visibility: 10 mi

Pressure: 29.86 "Hg

Humidity: 24%

Dew point: 40 °F

Location of ColumbiaLocation

Historic Weather in Columbia — Graph

°F

Columbia temperature yesterday

Maximum temperature yesterday: 71 °F (at 5:53 PM)
Minimum temperature yesterday: 43 °F (at 12:53 AM)
Average temperature yesterday: 56 °F

Past Weeks' High & Low Weather Summary

 TemperatureHumidityPressure
High84 °F (Mar 17, 5:53 PM)93% (Mar 22, 8:53 PM)30.48 "Hg (Mar 22, 8:53 PM)
Low31 °F (Mar 29, 6:53 AM)13% (Mar 16, 5:53 PM)29.67 "Hg (Mar 27, 4:53 AM)
Average59 °F62%30.07 "Hg
* Reported Mar 16 3:53 PM — Mar 31 3:53 PM, Columbia, Weather by CustomWeather, © 2015

Note: Actual official high and low records may vary slightly from our data, if they occured in-between our weather recording intervals... More about our weather records

Advertising

Columbia weather history for previous 24 hours

 ConditionsComfort  
Time TempWeatherWind HumidityBarometerVisibility
3:53 PM
Tue, Mar 31
79 °FSunny.16 mph23%29.90 "Hg10 mi
2:53 PM78 °FSunny.17 mph19%29.93 "Hg10 mi
1:53 PM75 °FSunny.10 mph22%29.97 "Hg10 mi
12:53 PM72 °FMild.N/A26%30.01 "HgN/A
11:53 AMN/ASunny.N/AN/A30.06 "HgN/A
10:53 AM62 °FSunny.3 mph48%30.08 "Hg10 mi
9:53 AM57 °FSunny.No wind62%30.08 "Hg10 mi
8:53 AM51 °FSunny.No wind80%30.09 "Hg10 mi
7:53 AM43 °FClear.No wind89%30.08 "Hg8 mi
6:53 AM43 °FClear.No wind89%30.06 "Hg9 mi
5:53 AM44 °FClear.No wind89%30.04 "Hg10 mi
4:53 AM46 °FClear.No wind83%30.04 "Hg10 mi
3:53 AM47 °FClear.No wind83%30.05 "Hg10 mi
2:53 AM50 °FClear.No wind77%30.05 "Hg10 mi
1:53 AM51 °FClear.No wind74%30.06 "Hg10 mi
12:53 AM54 °FClear.No wind67%30.06 "Hg10 mi
11:53 PM
Mon, Mar 30
64 °FClear.7 mph43%30.06 "Hg10 mi
10:53 PM61 °FClear.5 mph60%30.06 "Hg10 mi
9:53 PM63 °FClear.3 mph56%30.05 "Hg10 mi
8:53 PM63 °FClear.No wind56%30.02 "Hg10 mi
7:53 PM67 °FSunny.5 mph47%30.00 "Hg10 mi
6:53 PM71 °FSunny.12 mph38%30.01 "Hg10 mi
5:53 PM71 °FPassing clouds.12 mph38%30.01 "Hg10 mi
Weather by CustomWeather, © 2015

See weather overviewHow to use our weather pages